Greenville, WI

6:03 PM CDT on September 26, 2016 (GMT -0500)
Outagamie County Regional

Weather History for KATW - December, 2012

Change the Weather History Date:

Thursday, December 13, 2012

  Actual Average Record
Temperature  
Mean Temperature 32 °F -  
Max Temperature 39 °F 30 °F 55 °F (2015)
Min Temperature 26 °F 16 °F -10 °F (1985)
Degree Days  
Heating Degree Days 32    
Moisture  
Dew Point 25 °F    
Average Humidity 75    
Maximum Humidity 81    
Minimum Humidity 60    
Precipitation  
Precipitation 0.00 in - - ()
Sea Level Pressure  
Sea Level Pressure 30.08 in    
Wind  
Wind Speed 12 mph (SW)    
Max Wind Speed 16 mph    
Max Gust Speed 20 mph    
Visibility 10 miles    
Events      
Averages and records for this station are not official NWS values.
T = Trace of Precipitation, MM = Missing Value Source: NWS Daily Summary

Daily Weather History Graph

Daily Weather History Graph

Search for Another Location

Airport or City:

Trip Planner

Search our weather history database for the weather conditions in past years. The results will help you decide how hot, cold, wet, or windy it might be!

Date:

Astronomy

Dec. 13, 2012 Rise Set
Actual Time 7:21 AM CST 4:15 PM CST
Civil Twilight 6:48 AM CST 4:48 PM CST
Nautical Twilight 6:11 AM CST 5:25 PM CST
Astronomical Twilight 5:36 AM CST 6:00 PM CST
Moon 7:29 AM CST (12/13) 4:58 PM CST (12/13)
Length of Visible Light 10h 00m
Length of Day
8h 53m
New Moon, 0% of the Moon is Illuminated
Dec 13
New Moon
Dec 19
First Quarter
Dec 28
Full
Jan 4
Last Quarter
Jan 11
New

Hourly Weather History & Observations

Time (CST) Temp. Windchill Dew Point Humidity Pressure Visibility Wind Dir Wind Speed Gust Speed Precip Events Conditions
12:15 AM 33.8 °F 23.9 °F 28.4 °F 81% 30.12 in 10.0 mi SSW 15.0 mph - N/A   Clear
12:35 AM 33.8 °F 23.9 °F 28.4 °F 81% 30.12 in 10.0 mi SSW 15.0 mph - N/A   Clear
1:35 AM 32.0 °F 21.6 °F 26.6 °F 80% 30.12 in 10.0 mi SSW 15.0 mph 19.6 mph N/A   Clear
1:55 AM 32.0 °F 22.1 °F 26.6 °F 80% 30.11 in 10.0 mi SSW 13.8 mph - N/A   Clear
2:15 AM 32.0 °F 21.6 °F 26.6 °F 80% 30.11 in 10.0 mi SSW 15.0 mph - N/A   Clear
2:35 AM 32.0 °F 21.6 °F 26.6 °F 80% 30.11 in 10.0 mi SSW 15.0 mph - N/A   Clear
2:55 AM 32.0 °F 21.6 °F 26.6 °F 80% 30.10 in 10.0 mi SSW 15.0 mph - N/A   Clear
3:35 AM 32.0 °F 21.6 °F 26.6 °F 80% 30.09 in 10.0 mi SSW 15.0 mph - N/A   Clear
3:55 AM 32.0 °F 22.5 °F 26.6 °F 80% 30.09 in 10.0 mi SSW 12.7 mph 19.6 mph N/A   Clear
5:15 AM 32.0 °F 22.5 °F 24.8 °F 75% 30.07 in 10.0 mi SSW 12.7 mph - N/A   Clear
5:45 AM 32.0 °F 21.2 °F 24.8 °F 75% 30.07 in 10.0 mi SSW 16.1 mph - N/A   Clear
6:45 AM 30.2 °F 20.8 °F 23.0 °F 75% 30.07 in 10.0 mi SSW 11.5 mph - N/A   Partly Cloudy
8:45 AM 32.0 °F 23.0 °F 23.0 °F 69% 30.06 in 10.0 mi South 11.5 mph - N/A   Mostly Cloudy
9:45 AM 33.8 °F 23.9 °F 24.8 °F 70% 30.06 in 10.0 mi SSW 15.0 mph - N/A   Mostly Cloudy
10:45 AM 35.6 °F 26.2 °F 24.8 °F 65% 30.06 in 10.0 mi SSW 15.0 mph - N/A   Mostly Cloudy
11:45 AM 37.4 °F 29.3 °F 24.8 °F 60% 30.04 in 10.0 mi SSW 12.7 mph - N/A   Mostly Cloudy
12:45 PM 37.4 °F 29.8 °F 26.6 °F 65% 30.02 in 10.0 mi South 11.5 mph - N/A   Mostly Cloudy
1:45 PM 37.4 °F 29.8 °F 24.8 °F 60% 30.02 in 10.0 mi SSW 11.5 mph - N/A   Mostly Cloudy
2:45 PM 39.2 °F 33.0 °F 26.6 °F 61% 30.01 in 10.0 mi SSW 9.2 mph - N/A   Scattered Clouds
3:45 PM 37.4 °F 31.4 °F 26.6 °F 65% 30.02 in 10.0 mi SSW 8.1 mph - N/A   Scattered Clouds
5:45 PM 32.0 °F 25.6 °F 24.8 °F 75% 30.04 in 10.0 mi SW 6.9 mph - N/A   Scattered Clouds
7:45 PM 32.0 °F 25.6 °F 24.8 °F 75% 30.07 in 10.0 mi WSW 6.9 mph - N/A   Scattered Clouds
8:45 PM 28.4 °F 22.2 °F 23.0 °F 80% 30.07 in 10.0 mi West 5.8 mph - N/A   Scattered Clouds
9:45 PM 28.4 °F 21.2 °F 23.0 °F 80% 30.09 in 10.0 mi West 6.9 mph - N/A   Scattered Clouds
9:55 PM 28.4 °F 22.2 °F 23.0 °F 80% 30.09 in 10.0 mi West 5.8 mph - N/A   Clear
10:15 PM 28.4 °F 21.2 °F 23.0 °F 80% 30.10 in 10.0 mi West 6.9 mph - N/A   Clear
10:35 PM 28.4 °F 21.2 °F 23.0 °F 80% 30.10 in 10.0 mi West 6.9 mph - N/A   Clear
10:45 PM 28.4 °F 21.2 °F 23.0 °F 80% 30.10 in 10.0 mi West 6.9 mph - N/A   Scattered Clouds
10:55 PM 28.4 °F 21.2 °F 23.0 °F 80% 30.10 in 10.0 mi WNW 6.9 mph - N/A   Clear
11:15 PM 28.4 °F 21.2 °F 23.0 °F 80% 30.10 in 10.0 mi WNW 6.9 mph - N/A   Clear
11:35 PM 26.6 °F 21.2 °F 21.2 °F 80% 30.10 in 10.0 mi WNW 4.6 mph - N/A   Clear
11:55 PM 28.4 °F 23.3 °F 23.0 °F 80% 30.10 in 10.0 mi WNW 4.6 mph - N/A   Clear